Location: Bougoura
(13.1861°N, 5.0773°W)
Time: 00:49:05
(UTC+00:00)

Okean-O - Pass Details

Date: 18 September 2020
Orbit: 639 x 641 km, 98.2° (Epoch: 21 October)

Event Time Altitude Azimuth Distance (km) Brightness Sun altitude
Rises 19:34:10 0° 184° (S) 2,933 6.0 -19.1°
Reaches altitude 10° 19:36:29 10° 192° (SSW) 2,025 5.3 -19.7°
Maximum altitude 19:40:33 37° 259° (W) 996 4.1 -20.6°
Drops below altitude 10° 19:44:38 10° 327° (NNW) 2,026 5.7 -21.6°
Sets 19:46:58 0° 335° (NNW) 2,935 6.5 -22.2°
